Regional Weather Roundup
Issued by NWS New Orleans/Baton Rouge, LA

Home | Current Version | Previous Version | Text Only | Print | Product List | Glossary On
Versions: 1 2 3 4 5 6 7 8 9 10 11 12 13 14 15 16 17 18 19 20 21 22 23 24 25 26 27 28 29 30 31 32 33 34 35 36 37 38 39 40 41 42 43 44 45 46 47 48 49 50
142
ASUS44 KLIX 200808
RWRLIX
NEW ORLEANS REGIONAL WEATHER ROUNDUP
NATIONAL WEATHER SERVICE NEW ORLEANS LA
300 AM CDT MON APR 20 2015

NOTE: "FAIR" INDICATES FEW OR NO CLOUDS BELOW 12,000 FEET WITH NO
      SIGNIFICANT WEATHER AND/OR OBSTRUCTIONS TO VISIBILITY.
      SKY/WX - SKY CONDITION AND SIGNIFICANT WEATHER.
      TMP - AIR TEMPERATURE.     DP    - DEWPOINT TEMPERATURE.
      RH  - RELATIVE HUMIDITY.   PRES  - PRESSURE.
      HI  - HEAT INDEX.          WCI   - WIND CHILL INDEX.

*  THESE STATIONS ARE NOT NWS OR FAA STATIONS AND ARE NOT UNDER
   NWS QUALITY CONTROL.

LAZ038-040-048-061>063-065>067-069-200900-
SOUTHEAST LOUISIANA

CITY           SKY/WX    TMP DP  RH WIND       PRES   REMARKS
N.O. AUDUBON   NOT AVBL
N.O. INTL ARPT CLOUDY    73  67  81 SW7       29.77F
N.O. LAKEFRONT CLOUDY    76  68  76 W16       29.79F
SLIDELL        MOCLDY    73  70  90 CALM      29.78F
BATON ROUGE    CLOUDY    71  66  84 SW9       29.80F
BOOTHVILLE     CLOUDY    74  72  93 NW8       29.80F
BELLE CHASSE   CLOUDY    72  68  87 SW9       29.78F
BOGALUSA*        N/A     69  63  80 S8        29.79F
GALLIANO*      PTSUNNY   75  69  80 W9        29.82S
NEW ROADS*       N/A     69  66  90 S5        29.79F
GONZALES*        N/A     70  70 100 CALM      29.79F
HAMMOND*       CLOUDY    68  64  88 SW5       29.81F
HOUMA*         CLOUDY    71  70  95 S3        29.82S
PORT FOURCHON* PTSUNNY   75  70  83 W7G16     29.85F

$$

MSZ070-080>082-200900-
SOUTHERN MISSISSIPPI

CITY           SKY/WX    TMP DP  RH WIND       PRES   REMARKS
MCCOMB         CLOUDY    67  63  87 SW6       29.78F
GULFPORT       PTCLDY    70  66  87 W5        29.79F
BILOXI         PTCLDY    71  68  89 W1        29.79F
PASCAGOULA     MOCLDY    68  67  96 CALM      29.80S

$$

COASTAL OBSERVATIONS
LAKE AND NEARSHORE STATIONS

STATION/POSITION TIME  TEMP    WIND        PRES    WAVE
                       AIR SEA DIR/SP/G            HT/PER
                 (UTC) (F)     (DEG/KT/KT) (MB)    (FT/S)
PASCAGOULA       0700   75     220/ 13/ 16 1008.3
WAVELAND YACHT   0700   72 74  270/  5/  9 1009.8
GRAND ISLE       0700   76 76  280/ 11/ 12 1009.6
SOUTHWEST PASS   0700   72 63  240/  9/  9 1009.8
NEW CANAL        0700   74     240/  7/ 13 1010.4
SHELL BEACH      0700   75 77  250/ 15/ 19 1009.2

OFFSHORE STATIONS

STATION/POSITION TIME  TEMP    WIND        PRES    WAVE
                       AIR SEA DIR/SP/G            HT/PER
                 (UTC) (F)     (DEG/KT/KT) (MB)    (FT/S)
64 S DAUPHIN ISL 0750   75 74  190/  8/ 10 1008.9    5/ 7

$$




USA.gov is the U.S. government's official web portal to all federal, state and local government web resources and services.